Regional Weather Roundup
Issued by NWS Mobile, AL

Home | Current Version | Previous Version | Text Only | Print | Product List | Glossary On
Versions: 1 2 3 4 5 6 7 8 9 10 11 12 13 14 15 16 17 18 19 20 21 22 23 24 25 26 27 28 29 30 31 32 33 34 35 36 37 38 39 40 41 42 43 44 45 46 47 48 49 50
000
ASUS44 KMOB 042116
RWRMOB
REGIONAL WEATHER ROUNDUP
NATIONAL WEATHER SERVICE MOBILE AL
400 PM CDT MON MAY 04 2015

ALZ061>064-042200-
COASTAL ALABAMA


CITY           SKY/WX    TMP DP  RH WIND       PRES   REMARKS
MOBILE REG APT MOSUNNY   82  58  43 SE15      30.19F
BROOKLEY FIELD MOSUNNY   79  64  60 S13       30.19F
GULF SHORES    CLEAR     78  65  63 SE13G21   30.19F

$$

ALZ051>060-042200-
INTERIOR SOUTHWEST AND SOUTH CENTRAL ALABAMA


CITY           SKY/WX    TMP DP  RH WIND       PRES   REMARKS
ANDALUSIA/OPP  MOSUNNY   86  51  29 SE8       30.19F
EVERGREEN      MOSUNNY   84  52  33 VRB7      30.19F
FLORALA        PTCLDY    82  50  32 SE6       30.20F
GREENVILLE     FAIR      82  53  36 E9        30.19F

$$

FLZ001>006-042200-
WESTERN FLORIDA PANHANDLE


CITY           SKY/WX    TMP DP  RH WIND       PRES   REMARKS
CRESTVIEW      PTSUNNY   82  53  36 E7        30.19F
DESTIN         SUNNY     78  65  63 S9        30.18F
DUKE FIELD     MOSUNNY   82  51  33 E7        30.17F
MARY ESTHER    SUNNY     78  63  59 S14       30.17F
MILTON         MOCLDY    83  58  42 VRB7      30.17F
PENSACOLA      SUNNY     79  58  48 S15       30.18F
NAS PENSACOLA  MOSUNNY   79  64  60 S12       30.18F
VALPARAISO     MOSUNNY   79  65  63 S14       30.18F

$$

...MARINE OBSERVATIONS...

STATION/POSITION TIME  SKY/WX   TEMP    WIND        PRES    VSBY
                                AIR SEA DIR/SP/G
                 (UTC)          (F)     (DEG/KT/KT) (MB)    (MI)
PASCAGOULA       2000            77     140/ 12/ 16 1022.4F
PETIT BOIS ISL   2000            77     110/ 15/ 20 1022.9F
E DAUPHIN ISLAND 2100            74     120/ 16/ 18 1021.9F
MIDDLE BAY LIGHT 2000            74     150/ 19     1022.0F
USCG MOBILE BAY  2000            77 72  180/ 11/ 17 1021.6F
STATE DOCKS      2000            78 70              1022.3F
MEAHER PARK      2100            80     160/ 10     1021.0F
FORT MORGAN      2000            76     130/ 18/ 20 1022.1F
12 S ORANGE BCH  2050            75 75  120/ 14/ 16 1021.6F
WVE H/P(F/S)=  5/ 7

PENSACOLA BAY    2000            81 77  170/  8/ 11 1023.0F
64 S DAUPHIN ISL 2050            76 76  120/ 21/ 23 1022.1F
WVE H/P(F/S)=  6/ 6

67 S FORT MORGAN 2030            75                 1022.0R
115 SE PENSACOLA 2050            74 75  100/ 14/ 16 1022.4F
WVE H/P(F/S)=  6/ 7

MID GULF/42001   2050            78 79   90/ 17/ 19 1018.0F
WVE H/P(F/S)=  5/ 8

EAST GULF/42003  2050            76 80   90/ 16/ 19 1019.6F
WVE H/P(F/S)=  7/ 8


$$

...NEARBY LOCATIONS

CITY           SKY/WX    TMP DP  RH WIND       PRES   REMARKS
GULFPORT       MOSUNNY   80  67  64 SE23      30.18F
BILOXI         SUNNY     79  66  63 SE14      30.18F
PASCAGOULA     SUNNY     81  62  52 SE16      30.19F
HATTIESBURG    FAIR      84  57  39 VRB5G17   30.16F
LAUREL         SUNNY     82  45  26 SE9       30.18F
MERIDIAN       SUNNY     83  53  35 SE8       30.17F
MERIDIAN NAS   MOSUNNY   85  53  33 SE9G21    30.19F
MONTGOMERY     MOSUNNY   84  53  34 SE6       30.20F
MAXWELL AFB    MOSUNNY   80  53  38 SE5       30.19F
TROY           MOSUNNY   81  53  37 SE8       30.21F
FORT RUCKER    PTSUNNY   82  50  32 VRB6      30.18F
DALEVILLE      MOSUNNY   82  46  28 E12       30.19F
DOTHAN         SUNNY     82  46  28 E13G18    30.23F

$$

...OTHER SURROUNDING LOCATIONS...

CITY           SKY/WX    TMP DP  RH WIND       PRES   REMARKS
BIRMINGHAM     MOSUNNY   82  50  32 CALM      30.23F
TUSCALOOSA     SUNNY     83  54  36 S9        30.20F
COLUMBUS GA    MOSUNNY   80  47  31 SE3       30.21F
PANAMA CITY    NOT AVBL
TALLAHASSEE    MOSUNNY   86  50  28 N5        30.18F
BATON ROUGE    PTSUNNY   80  62  54 SE15G22   30.12F
NEW ORLEANS    PTSUNNY   80  62  54 SE13      30.14F
SLIDELL        PTSUNNY   80  65  59 SE13      30.15F
JACKSON        MOSUNNY   84  56  38 S13       30.15F
MCCOMB         MOSUNNY   80  62  54 SE12      30.15F

$$

...SURROUNDING MARINE OBSERVATIONS...

STATION/POSITION TIME  SKY/WX   TEMP    WIND        PRES    VSBY
                                AIR SEA DIR/SP/G
                 (UTC)          (F)     (DEG/KT/KT) (MB)    (MI)
WAVELAND         2000            75 76  130/ 13/ 18 1022.1F
PASCAGOULA RGN A 2000            78     110/ 14/ 19 1022.1F
PASCAGOULA PORT  2000               79                N/A
GRAND ISLE       2000            77 77  100/  9/ 16 1020.8F
SOUTHWEST PASS   2100            77     100/ 18/ 19 1020.4F
PILOT STATION E  2000            79 67  110/ 16/ 19 1021.6F
SHELL BEACH      2000            77 76  110/ 16/ 20 1021.2F
PANAMA CITY      2000            77 78  190/  9/ 17 1022.1F
APALACHICOLA     2000            74 72  120/  5/  7 1023.0F
TYNDALL TOWER C  2100            73      50/  6/  6 1022.3F
S APLCHCLA/42036 2050            74 75   70/ 10/ 12 1021.9F
WVE H/P(F/S)=  4/ 6


$$




USA.gov is the U.S. government's official web portal to all federal, state and local government web resources and services.